sat.trackr.live / text

‹ back to catalog

RESURS-P 4

NORAD 59371 · 2024-061A

PAYLOAD ACTIVE UNKNOWN

§ Identity

Operator
Country
CIS
Launch date
2024-03-31
Launch site
TYMSC
Launch vehicle
Mass (kg)
RCS (m²)

Purposes: earth_obs

External: N2YO · Heavens-Above · Gunter

§ Orbital elements

Epoch: 2026-09-19T22:46:27.474240Z

Period
93.96 min
Inclination
97.2829°
Eccentricity
0.0001642
Mean motion
15.32603103 rev/d
Perigee alt
466.9 km
Apogee alt
469.2 km
Semi-major
6,846.2 km
B*
7.0141e-5
RAAN
209.2646°
Arg perigee
130.7764°
Mean anomaly
229.3621°
Rev number
13,827

§ Raw data

RESURS-P 41 59371U 24061A   26262.94892910  .00002132  00000+0  70141-4 0  99922 59371  97.2829 209.2646 0001642 130.7764 229.3621 15.32603103138274

JSON: /api/v1/satellites/59371 · /tle

For live sub-satellite position, see the globe view (requires WebGL).

§ Visibility from observer

Set your observer location to see the next 7 days of passes ≥ 10°. The values pass through the URL so the page stays shareable.

No JS? Fill the form by hand. The geolocation button needs JavaScript.